Location: Castifao
(42.5040°N, 9.1124°E)
Time: 15:35:46
(UTC+00:00)

USA 234 - Pass Details

Date: 23 January 2020
Orbit: 1100 x 1107 km, 123.0° (Epoch: 20 February)

Event Time Altitude Azimuth Distance (km) Brightness Sun altitude
Rises 17:59:07 0° 152° (SSE) 3,901 6.0 -17.3°
Reaches altitude 10° 18:01:43 10° 158° (SSE) 2,947 5.4 -17.7°
Maximum altitude 18:07:52 45° 230° (SW) 1,468 4.3 -18.9°
Drops below altitude 10° 18:14:05 10° 301° (WNW) 2,963 6.2 -20.0°
Sets 18:16:43 0° 308° (NW) 3,925 6.8 -20.5°
